STARLINK-35089

Last updated on Tue Sep 16 2025 00:02:08 GMT+0000 (Coordinated Universal Time)

1 65484U 25195AC 25257.76746201 -.00553473 00000+0 -34686-2 0 9990 2 65484 53.1550 1.4174 0001963 185.7688 174.3311 15.77570305 2953
UTC large
Height (km)
Speed (km/s)
/
Latitude / Longitude
Inclination (degrees)
Orbital Period (minutes)
Azimuth
Elevation
Range (km)
Doppler Factor

Next 0 passes for location: London (51.5072 / 0.1276)

Sorry there are no passes over London.